Regional Weather Roundup
Issued by NWS

Home | Current Version | Previous Version | Text Only | Print | Product List | Glossary On
Versions: 1 2 3 4 5 6 7 8 9 10 11 12 13 14 15 16 17 18 19 20 21 22 23 24 25 26 27 28 29 30 31 32 33 34 35 36 37 38 39 40 41 42 43 44 45 46 47 48 49 50
000
ASUS43 KTOP 300859
RWRKS

WEATHER ROUNDUP FOR KANSAS
NATIONAL WEATHER SERVICE GOODLAND KS
400 AM CDT SAT APR 30 2016

NOTE:  "FAIR" INDICATES FEW OR NO CLOUDS BELOW 12,000 FEET WITH NO
SIGNIFICANT WEATHER AND/OR OBSTRUCTIONS TO VISIBILITY.

KSZ001>006-013>018-027>032-041>047-301000-
NORTHWEST KANSAS

CITY           SKY/WX    TMP DP  RH WIND       PRES   REMARKS
GOODLAND       CLOUDY    32  31  96 N14       29.79F WCI  22
HAYS           CLOUDY    45  36  70 NW8       29.72F
HILL CITY      LGT RAIN  42  41  96 N12       29.75F FOG
RUSSELL        CLOUDY    45  45 100 NW12      29.69F FOG
$$

KSZ061>065-074>080-084>089-301000-
SOUTHWEST KANSAS

CITY           SKY/WX    TMP DP  RH WIND       PRES   REMARKS
DODGE CITY     CLOUDY    39  37  92 NW17      29.76F WCI  30
ELKHART          N/A     37  32  82 NW7         N/A
GARDEN CITY    CLOUDY    36  35  96 NW14      29.78F WCI  27
GREAT BEND     CLOUDY    45  39  81 NW8       29.72S
LIBERAL        PTCLDY    39  34  81 NW15      29.79F WCI  31
$$

KSZ066>073-081>083-090>101-301000-
SOUTHEAST KANSAS

CITY           SKY/WX    TMP DP  RH WIND       PRES   REMARKS
CHANUTE        CLOUDY    61  58  90 SE5       29.63F
COFFEYVILLE    CLOUDY    62  61  96 S3        29.64S
HUTCHINSON     CLOUDY    50  49  96 NW9       29.68S
MEDICINE LODGE   N/A     47  45  93 NW14      29.73R
NEWTON         CLOUDY    52  46  82 NW9       29.68S
PARSONS        CLOUDY    63  61  93 S3        29.64F
WICHITA INTL   CLOUDY    52  50  93 NW13      29.67R
WICHITA JABRA  CLOUDY    52  52 100 NW8       29.67R
WICHITA MCCONL CLOUDY    52  52 100 NW9       29.66R
WINFIELD       CLOUDY    53  52  96 W12       29.68S
$$

KSZ007>012-019>026-033>040-048>060-102>105-301000-
NORTHEAST KANSAS

CITY           SKY/WX    TMP DP  RH WIND       PRES   REMARKS
CONCORDIA      LGT RAIN  47  45  93 NE9       29.68F FOG
EMPORIA        CLOUDY    59  58  96 S6        29.62S
LAWRENCE       RAIN      54  54 100 E9        29.64F FOG
MANHATTAN      LGT RAIN  52  49  89 N3        29.64F
OLATHE IND     HVY RAIN  57  57 100 E12       29.64F FOG
OLATHE EXE     CLOUDY    57  56  96 E9        29.65F
SALINA         CLOUDY    51  49  92 N9        29.67S
TOPEKA BILLARD LGT RAIN  55  53  93 E16       29.63F FOG
TOPEKA FORBES  LGT RAIN  57  55  93 SE7       29.63S FOG
$$




USA.gov is the U.S. government's official web portal to all federal, state and local government web resources and services.